Regional Weather Roundup
Issued by NWS

Home | Current Version | Previous Version | Graphics & Text | Print | Product List | Glossary On
Versions: 1 2 3 4 5 6 7 8 9 10 11 12 13 14 15 16 17 18 19 20 21 22 23 24 25 26 27 28 29 30 31 32 33 34 35 36 37 38 39 40 41 42 43 44 45 46 47 48 49 50
253
ASUS43 KDTX 272001
RWRMI
MICHIGAN HOURLY REGIONAL WEATHER ROUNDUP
NATIONAL WEATHER SERVICE DETROIT/PONTIAC MI
400 PM EDT TUE SEP 27 2016

NOTE: "FAIR" INDICATES FEW OR NO CLOUDS BELOW 12,000 FEET WITH NO
SIGNIFICANT WEATHER AND/OR OBSTRUCTION TO VISIBILITY.

MIZ047>049-052>055-059>063-066>070-074>076-081>083-272100-
SOUTHEAST LOWER MICHIGAN

CITY           SKY/WX    TMP DP  RH WIND       PRES   REMARKS
ADRIAN         SUNNY     68  32  26 W15G24    29.76S
ALMA           CLOUDY    60  47  62 SW21G33   29.71R
ANN ARBOR      SUNNY     69  34  27 SW20G30   29.73S
BAD AXE        CLOUDY    60  44  55 SW8       29.70R
CARO           CLOUDY    61  46  57 SW7       29.69S
DETROIT CITY   MOSUNNY   68  36  30 W14G23    29.72F
DETROIT        PTSUNNY   70  33  25 SW21G29   29.74S
FLINT          PTSUNNY   63  42  46 SW8       29.71R
GROSSE ILE     SUNNY     70  32  24 SW15G26   29.73S
HILLSDALE      SUNNY     68  30  24 W15G25    29.75S
HOWELL         CLOUDY    64  39  39 W16       29.72R

CITY           SKY/WX    TMP DP  RH WIND       PRES   REMARKS
JACKSON        MOSUNNY   66  36  32 W15G28    29.74R
LAMBERTVILLE   SUNNY     71  34  25 W8G18     29.75F
LANSING        CLOUDY    63  41  44 W20G33    29.73R
LAPEER         PTSUNNY   65  41  41 W9G20     29.71R
MASON          CLOUDY    65  38  36 W14G20    29.72S
MONROE         SUNNY     71  35  26 W18G28    29.74S
MT. CLEMENS    MOSUNNY   69  43  39 SW10      29.71S
PONTIAC        PTSUNNY   66  44  45 SW10      29.71S
PORT HURON     PTSUNNY   66  45  45 SW7G17    29.72S
TRI CITIES     LGT RAIN  60  46  59 SW18G25   29.70R
MIDLAND        CLOUDY    58  46  63 W10G16    29.69R
TROY           MOSUNNY   69  36  30 SW10G17   29.74R
SAGINAW HB     CLOUDY    63  43  48 W16G22    29.69R
$$
MIZ043>046-050>051-056>058-064>065-071>073-077>080-272100-
SOUTHWEST LOWER MICHIGAN

CITY           SKY/WX    TMP DP  RH WIND       PRES   REMARKS
BATTLE CREEK   MOSUNNY   66  39  37 W23G30    29.74R
BENTON HARBOR  SUNNY     67  35  30 W21G30    29.74S
BIG RAPIDS     CLOUDY    55  51  87 SW9       29.69S
COLDWATER      SUNNY     68  29  23 W17G26    29.75S
FREMONT        CLOUDY    55  47  74 SW6       29.71R
HOLLAND        CLOUDY    62  45  53 W10G21    29.74R
GRAND RAPIDS   CLOUDY    60  43  53 W14       29.73S
IONIA          CLOUDY    59  42  53 W17       29.72R
KALAMAZOO      MOSUNNY   67  35  30 W17G28    29.74S
LUDINGTON      CLOUDY    57  48  72 W14G21    29.67S
MARSHALL       MOSUNNY   66  37  33 W23G30    29.73S
MOUNT PLEASANT CLOUDY    60  46  58 SW16G24   29.69S
MUSKEGON       CLOUDY    59  44  57 W14       29.72S
SOUTH HAVEN    MOSUNNY   67  41  37 W15G24    29.73S
$$
MIZ016>042-272100-
NORTHERN LOWER MICHIGAN

CITY           SKY/WX    TMP DP  RH WIND       PRES   REMARKS
ALPENA         CLOUDY    57  50  77 SW7       29.64R
BEAVER ISLAND  RAIN      52  50  93 W10       29.59R
BELLAIRE       CLOUDY    54  51  92 SW8       29.63R
CADILLAC       CLOUDY    52  49  87 SW10      29.66R
CHARLEVOIX     DRIZZLE   54  52  95 W12G20    29.63R
FRANKFORT      LGT RAIN  55  49  82 W16       29.64R
GAYLORD        CLOUDY    54  47  77 SW14      29.62R
GRAYLING       CLOUDY    54  48  79 SW9       29.65R
HARBOR SPRINGS DRIZZLE   54  51  92 W7        29.60R
HOUGHTON LAKE  CLOUDY    53  48  83 SW9       29.67R
MANISTEE       CLOUDY    58  47  66 W14       29.65R
OSCODA         LGT RAIN  55  52  89 S7        29.67R
PELLSTON       LGT RAIN  55  52  89 SW5       29.60R
ROGERS CITY    DRIZZLE   57  49  75 S7        29.62S
TRAVERSE CITY  CLOUDY    55  51  86 SW5       29.62R
$$
MIZ007>008-015-272100-
EASTERN UPPER MICHIGAN

CITY           SKY/WX    TMP DP  RH WIND       PRES   REMARKS
KINROSS        LGT RAIN  54  51  90 W6        29.58R
MACKINAC ISLAN LGT RAIN  53  53 100 W3        29.58R
NEWBERRY       LGT RAIN  51  51  97 SW13      29.56R
S. S. MARIE    LGT RAIN  56  52  86 W5        29.56R
MUNISING         N/A     53  51  93 SW9       29.55R
$$
MIZ004>006-011>014-085-272100-
CENTRAL UPPER MICHIGAN

CITY           SKY/WX    TMP DP  RH WIND       PRES   REMARKS
MANISTIQUE     LGT RAIN  50  48  92 W5        29.59R
ESCANABA       LGT RAIN  52  50  93 SW7       29.60R
SAWYER-GWINN   CLOUDY    50  48  93 NW14G20   29.57R
$$
MIZ001>003-009>011-084-272100-
WESTERN UPPER MICHIGAN

CITY           SKY/WX    TMP DP  RH WIND       PRES   REMARKS
IRON MOUNTAIN  LGT RAIN  51  46  83 NW12      29.60R
HOUGHTON       LGT RAIN  51  48  89 W14       29.57R FOG
COPPER HARBOR    N/A     57  51  80 N17       29.53R
IRONWOOD       LGT RAIN  48  47  96 W12G18    29.66R FOG
$$

ABBREVIATIONS USED IN REMARKS
   TC - TEMPERATURE IN CELSIUS
  WCI - WIND CHILL INDEX
   HX - HEAT INDEX
  VSB - VISIBILITY





USA.gov is the U.S. government's official web portal to all federal, state and local government web resources and services.